sat.trackr.live / text

‹ back to catalog

UNKNOWN

NORAD 89349

UNKNOWN UNKNOWN UNKNOWN

§ Identity

Operator
Country
Launch date
Launch site
Launch vehicle
Mass (kg)
RCS (m²)

External: N2YO · Heavens-Above

§ Orbital elements

Epoch: 2026-05-23T09:24:23.652288Z

Period
111.08 min
Inclination
90.2495°
Eccentricity
0.0028543
Mean motion
12.96318110 rev/d
Perigee alt
1,254.7 km
Apogee alt
1,298.4 km
Semi-major
7,654.7 km
B*
1.7041e-3
RAAN
11.0199°
Arg perigee
198.6073°
Mean anomaly
161.4005°
Rev number
49,969

§ Raw data

UNKNOWN1 89349U          26143.39194042  .00000495  00000+0  17041-2 0  99932 89349  90.2495  11.0199 0028543 198.6073 161.4005 12.96318110499697

JSON: /api/v1/satellites/89349 · /tle

For live sub-satellite position, see the globe view (requires WebGL).

§ Visibility from observer

Set your observer location to see the next 7 days of passes ≥ 10°. The values pass through the URL so the page stays shareable.

No JS? Fill the form by hand. The geolocation button needs JavaScript.